{"data":{"norad_id":48104,"intl_designator":"2021-027N","name":"STARLINK-2439","alt_names":[],"object_type":"PAYLOAD","status":"ACTIVE","operator":null,"country":"US","launch_date":"2021-04-07","launch_site_code":"AFETR","launch_vehicle":null,"mission":null,"orbit_class":"UNKNOWN","rcs_meters":null,"size_class":null,"mass_kg":null,"dimensions":null,"purposes":["comms"],"wikipedia_slug":null,"has_3d_model":false,"image_url":null,"decayed_at":null,"tle_current":{"epoch":"2026-09-19T15:57:18.446976Z","epoch_age_seconds":101388,"freshness":"FRESH","line1":"1 48104U 21027N   26262.66479684  .00003578  00000+0  12696-3 0  9996","line2":"2 48104  53.1610 330.0620 0001504  74.0373 286.0794 15.31717515302415","mean_motion":15.31717515,"eccentricity":0.0001504,"inclination_deg":53.161,"raan_deg":330.062,"arg_perigee_deg":74.0373,"mean_anomaly_deg":286.0794,"bstar":0.00012696,"rev_number":30241,"period_min":94.012112931933,"perigee_km":469.657721172,"apogee_km":471.71784766716,"semimajor_km":6848.8247844196,"source":"CELESTRAK","updated_at":"2026-09-20T09:00:38.762918Z"}}}